SKYSAT-C5

Last updated on Wed Jul 02 2025 00:02:30 GMT+0000 (Coordinated Universal Time)

1 41772U 16058C 25182.58635508 .00007486 00000+0 21470-3 0 9990 2 41772 97.0990 232.3883 0002790 339.5032 20.6100 15.36153507489960
UTC large
Height (km)
Speed (km/s)
/
Latitude / Longitude
Inclination (degrees)
Orbital Period (minutes)
Azimuth
Elevation
Range (km)
Doppler Factor

Next 0 passes for location: London (51.5072 / 0.1276)

Sorry there are no passes over London.